Location: Godzisko
(49.9648°N, 19.4576°E)
Time: 08:02:15
(UTC+00:00)

SL-4 R/B - Pass Details

Date: 20 April 2021
Orbit: 427 x 663 km, 51.6° (Epoch: 06 May)

Event Time Altitude Azimuth Distance (km) Brightness Sun altitude
Exits shadow 01:11:05 27° 279° (W) 1,282 3.6 -20.3°
Maximum altitude 01:13:39 64° 206° (SSW) 735 2.3 -20.0°
Drops below altitude 10° 01:18:24 10° 125° (SE) 2,066 5.0 -19.5°
Sets 01:20:43 0° 123° (ESE) 2,958 5.9 -19.3°
